Hourly Data Report for October 28, 2013

All times are specified in Local Standard Time (LST). Add 1 hour to adjust for Daylight Saving Time where and when it is observed.

TORONTO INTL A
ONTARIO

43°40'36.000" N
79°37'50.000" W
173.40 m
6158731
71624
YYZ

Download Data

Hourly Data (October 2013)
Hourly Data Report for October 28, 2013
Temp Definition
°C
Dew Point Temp Definition
°C
Rel Hum Definition
%
Wind Dir Definition
10's deg

Wind Spd Definition
km/h
Visibility Definition
km
Stn Press Definition
kPa
Hmdx Definition


Wind Chill Definition


Weather Definition


TIME
00:00 Legend Double Dagger 5.8 0.2 67 21 10 24.1 99.50     LegendNANA
01:00 Legend Double Dagger 7.1 1.0 65 24 26 24.1 99.50     Cloudy
02:00 Legend Double Dagger 6.0 1.0 70 25 19 24.1 99.52     LegendNANA
03:00 Legend Double Dagger 5.3 1.1 74 25 19 24.1 99.56     LegendNANA
04:00 Legend Double Dagger 5.3 1.6 77 26 17 24.1 99.65     Mostly Cloudy
05:00 Legend Double Dagger 5.3 1.8 78 26 15 24.1 99.78     LegendNANA
06:00 Legend Double Dagger 5.3 2.1 80 27 14 24.1 99.86     LegendNANA
07:00 Legend Double Dagger 6.2 2.5 77 36 26 24.1 100.02     Cloudy
08:00 Legend Double Dagger 5.6 0.2 68 34 26 24.1 100.20     LegendNANA
09:00 Legend Double Dagger 4.7 -1.3 65 36 28 24.1 100.34     LegendNANA
10:00 Legend Double Dagger 6.1 -4.1 48 1 28 24.1 100.43     Mainly Clear
11:00 Legend Double Dagger 6.5 -3.7 48 35 21 24.1 100.50     LegendNANA
12:00 Legend Double Dagger 7.0 -6.4 38 1 21 24.1 100.55     LegendNANA
13:00 Legend Double Dagger 7.3 -7.6 34 1 19 24.1 100.56     Mainly Clear
14:00 Legend Double Dagger 7.3 -6.4 37 1 15 24.1 100.60     LegendNANA
15:00 Legend Double Dagger 7.2 -6.9 36 35 18 24.1 100.64     LegendNANA
16:00 Legend Double Dagger 6.2 -7.4 37 36 8 24.1 100.67     Clear
17:00 Legend Double Dagger 4.8 -5.9 46 36 18 24.1 100.68     LegendNANA
18:00 Legend Double Dagger 3.5 -6.2 49 36 17 24.1 100.73     LegendNANA
19:00 Legend Double Dagger 2.7 -6.0 53 2 16 24.1 100.79     Clear
20:00 Legend Double Dagger 1.3 -5.6 60 2 12 24.1 100.81     LegendNANA
21:00 Legend Double Dagger 0.7 -5.4 64 36 12 24.1 100.87     LegendNANA
22:00 Legend Double Dagger 0.2 -4.8 69 36 16 24.1 100.88     Clear
23:00 Legend Double Dagger -0.3 -4.9 71 36 14 24.1 100.90   -5 LegendNANA

Notes on Data Quality.

Legend

  • E = Estimated
  • M = Missing
  • NA = Not Available
  • ‡ = Partner data that is not subject to review by the National Climate Archives
Date modified: